Lid_Strength_Index
12 16 19 17 16 16 16 18 18 16 15 16 18 17 15 14 14 15 14 13 12 10 10 11 13 14 15 15 15 15 16 16 16 17 17 17 17 16 16 15 13 13 13 13
15 19 16 15 15 16 16 18 19 17 15 17 17 16 15 15 16 16 16 15 14 11 12 13 14 15 15 15 15 16 16 16 16 16 16 17 17 17 16 15 15 14 14 14
17 17 14 15 16 17 18 19 20 19 17 16 18 18 15 15 15 15 15 15 14 12 12 14 14 15 16 16 16 16 16 16 16 16 16 16 16 17 17 16 15 15 14 14
17 15 16 16 17 17 19 17 18 18 20 22 18 21 18 16 16 16 15 16 15 15 12 13 14 15 15 16 16 16 16 16 15 16 16 18 19 18 17 17 16 16 15 15
18 17 17 17 18 17 18 17 18 19 21 21 20 23 18 16 17 17 16 16 17 15 14 14 14 14 16 17 17 17 16 16 16 17 17 18 19 18 17 17 17 16 16 15
17 15 17 18 17 17 16 18 18 19 21 24 24 23 19 17 17 17 17 17 17 17 16 16 16 16 17 17 17 17 16 17 17 17 18 18 19 19 19 18 18 17 17 16
17 18 17 16 18 17 18 19 24 22 23 21 28 23 19 16 18 17 17 18 18 17 17 17 17 18 18 18 18 17 18 18 18 18 18 18 18 19 19 18 18 18 18 17
22 20 19 17 19 20 19 20 23 26 24 22 27 23 18 17 17 17 17 17 17 18 18 18 18 18 18 19 19 19 19 19 19 19 19 18 18 18 18 18 18 18 17 17
22 19 18 18 18 19 19 22 20 26 32 27 22 19 16 18 18 18 18 18 18 19 18 19 19 19 19 20 20 20 20 19 19 19 19 19 19 19 19 19 18 18 17 17
20 22 20 18 18 19 19 19 22 23 26 26 23 23 19 20 21 20 18 18 19 20 20 20 20 20 20 20 20 20 20 20 20 20 20 20 19 19 19 19 19 19 19 18
19 21 19 20 22 21 22 22 22 21 21 26 27 22 18 19 19 20 21 18 24 24 21 21 21 21 20 20 20 21 21 20 20 20 20 20 20 20 19 19 19 19 19 19
19 19 23 20 19 19 20 19 20 23 24 24 24 23 19 21 21 22 20 20 22 25 23 22 22 21 21 21 21 22 21 21 21 21 21 20 20 20 20 20 20 20 20 19
18 22 23 18 19 20 22 20 20 23 22 26 26 21 22 24 24 22 23 23 23 24 25 23 22 21 21 21 22 22 22 22 21 21 21 21 21 21 21 21 20 20 20 19
16 20 22 20 19 21 22 21 20 23 28 24 23 19 16 19 21 21 22 24 25 25 25 24 22 22 21 21 23 23 22 21 22 22 22 22 21 21 21 21 21 20 19 18
19 25 22 21 20 22 20 20 22 23 23 23 18 21 16 16 17 19 24 26 24 24 24 23 25 24 25 25 24 24 24 22 22 22 23 22 21 21 21 21 21 20 18 17
19 25 26 25 20 20 22 20 21 21 21 23 21 21 17 17 27 26 24 23 24 25 24 25 24 25 26 25 25 23 25 25 25 26 26 24 24 23 23 22 21 19 18 17
22 26 28 26 24 23 21 19 21 23 24 23 24 17 23 23 23 21 19 21 22 24 24 25 25 26 27 26 26 26 27 28 28 29 27 26 26 25 24 23 21 20 19 17
25 26 28 27 26 26 16 18 19 20 18 21 20 18 17 18 17 18 19 21 23 23 24 24 25 28 27 27 29 30 29 28 30 30 30 28 28 26 25 23 22 20 18 18
21 24 26 26 31 21 17 20 20 21 19 17 18 17 17 19 19 19 21 21 22 22 23 23 25 26 26 27 28 30 28 32 29 29 28 28 29 26 25 24 23 20 19 19
22 22 21 29 26 24 16 21 21 19 18 17 19 18 19 19 18 16 22 21 22 22 22 22 22 22 23 23 23 23 27 29 25 25 25 25 26 26 25 23 22 20 19 19
24 23 24 23 23 22 17 21 19 19 14 19 18 17 18 19 17 21 21 22 22 22 22 23 23 23 23 23 23 24 24 25 24 23 24 25 25 24 23 21 20 20 20 19
21 24 25 23 24 23 19 20 16 12 16 17 18 16 17 16 21 22 22 23 23 23 23 23 24 24 24 24 24 25 25 24 24 24 25 25 24 23 20 20 20 19 19 19
18 16 17 18 18 15 18 14 14 15 14 17 17 17 17 17 21 22 23 23 23 23 23 24 25 25 25 25 25 26 25 25 26 27 27 26 24 21 20 21 20 19 19 19
19 17 18 17 13 13 12 15 16 17 16 16 17 16 17 19 21 22 23 23 24 23 24 25 27 27 27 26 26 27 26 26 28 28 27 25 24 23 21 20 19 19 19 19
15 18 17 16 14 13 13 12 11 14 16 17 18 18 19 20 22 23 23 23 24 24 25 27 28 28 29 27 28 29 27 28 28 27 26 25 24 23 22 19 19 18 17 15
18 15 16 15 11 11 11 15 16 17 18 19 20 22 21 21 22 22 23 23 24 25 25 27 27 28 28 28 28 28 28 27 28 28 26 26 24 23 21 21 20 16 14 13